Etusivu
METAR-TAF:

METAR-TAF

Lentoasemat :

Mora–Siljan

Mora, Ruotsi

Leveyspiiri: 60-57-31N, Pituuspiiri: 14-30-40E, korkeus merenpinnasta: 193 m

Tämänhetkinen sää

Tämä raportti tehtiin 10 minuuttia sitten, kello 09.20 UTC
Tuuli 9 kn etelästä
Lämpötila 18°C
Kosteus 68%
Ilmanpaine 1010 hPa
Näkyvyys 10 km tai enemmän

METAR: ESKM 170920Z AUTO 18009KT 9999 OVC078/// 18/12 Q1010

Aika: 11:30 (09:30 UTC)


TAF: puuttuu

Säähavainnot ja -ennusteet yli 4000 lentoasemalta (METAR- ja TAF-raportit).

Käytössä olevat sääasemat on merkitty karttaan keltaisilla ja punaisilla pisteillä.

Aseta hiiri pisteen päälle nähdäksesi sääaseman nimen.

Klikkaa sitten nähdäksesi säähavainnot ja -ennusteet.

Kartan vaihtaminen: klikkaa mustalla rastilla varustettuja vihreitä pisteitä, niin voit zoomata sisään; viivalla varustettua vihreää pistettä, niin voit zoomata ulos tai vihreitä nuolia, niin pääset viereisille kartoille.


METAR-TAF: